Regional Weather Roundup
Issued by NWS Little Rock, AR

Home | Current Version | Previous Version | Text Only | Print | Product List | Glossary On
Versions: 1 2 3 4 5 6 7 8 9 10 11 12 13 14 15 16 17 18 19 20 21 22 23 24 25 26 27 28 29 30 31 32 33 34 35 36 37 38 39 40 41 42 43 44 45 46 47 48 49 50
000
ASUS44 KLZK 292005
RWRLZK

WEATHER ROUNDUP FOR ARKANSAS
NATIONAL WEATHER SERVICE LITTLE ROCK AR
300 PM CDT WED JUL 29 2015

NOTE: "FAIR" INDICATES FEW OR NO CLOUDS BELOW 12,000 FEET WITH NO
SIGNIFICANT WEATHER AND/OR OBSTRUCTIONS TO VISIBILITY.

ARZ001-003-010-029-292100-
NORTHWEST ARKANSAS

CITY           SKY/WX    TMP DP  RH WIND       PRES   REMARKS
FAYETTEVILLE   SUNNY     92  71  50 W7        30.09F HX  98
FORT SMITH     SUNNY     97  65  34 CALM      30.02F HX  99
HARRISON       SUNNY     92  70  48 NW6       30.09F HX  97
BENTONVILLE    MOSUNNY   93  68  43 NW6       30.11F HX  97
ROGERS         SUNNY     92  70  48 NW5       30.10F HX  97
SILOAM SPGS    MOSUNNY   93  70  46 CALM      30.08F HX  99
HIGHFILL       SUNNY     93  71  48 VRB5      30.09F HX 100
SPRINGDALE     MOSUNNY   91  70  49 NW5       30.12  HX  97
$$

ARZ004-005-016-292100-
NORTH CENTRAL ARKANSAS

CITY           SKY/WX    TMP DP  RH WIND       PRES   REMARKS
BATESVILLE     SUNNY     95  73  49 W7        30.02F HX 105
FLIPPIN        SUNNY     95  70  43 W9        30.03F HX 101
MTN HOME       SUNNY     92  73  53 SW5       30.05F HX 100
$$

ARZ040-041-292100-
WEST CENTRAL ARKANSAS

CITY           SKY/WX    TMP DP  RH WIND       PRES   REMARKS
MENA           SUNNY     99  63  30 CALM      30.06F HX 100
MOUNT IDA      SUNNY     99  64  31 CALM      30.02F HX 101
$$

ARZ009-017-025-026-028-292100-
NORTHEAST ARKANSAS

CITY           SKY/WX    TMP DP  RH WIND       PRES   REMARKS
JONESBORO      SUNNY     95  78  58 NW6       29.99F HX 111
NEWPORT        MOSUNNY   97  75  48 W9        30.01F HX 109
WALNUT RIDGE   MOSUNNY   97  73  46 NW6       29.98F HX 107
BLYTHEVILLE    SUNNY     94  80  64 W6        29.98F HX 113
$$

ARZ022-023-033-042-044-292100-
CENTRAL ARKANSAS

CITY           SKY/WX    TMP DP  RH WIND       PRES   REMARKS
LITTLE ROCK    MOSUNNY  100  69  36 CALM      30.00F HX 106
N LITTLE ROCK  MOSUNNY  101  71  38 N3        30.00F HX 109
JACKSONVILLE   SUNNY    100  70  38 E7        29.99F HX 107
SEARCY         SUNNY     97  75  49 VRB3      30.01F HX 109
HOT SPRINGS    PTSUNNY   97  67  37 E5        30.02F HX 101
RUSSELLVILLE   PTSUNNY   97  68  38 W7        30.01F HX 102
CLINTON        LGT RAIN  97  73  46 W6        30.03F HX 107
$$

ARZ036-292100-
EAST ARKANSAS

CITY           SKY/WX    TMP DP  RH WIND       PRES   REMARKS
WEST MEMPHIS   MOSUNNY   96  78  56 NW6       29.98F HX 112
$$

ARZ050-053-066-070-073-292100-
SOUTHWEST ARKANSAS

CITY           SKY/WX    TMP DP  RH WIND       PRES   REMARKS
ARKADELPHIA    FAIR     102  70  35 VRB3      30.01F HX 109
CAMDEN         SUNNY    100  68  34 CALM      30.00F HX 106
TEXARKANA      SUNNY     98  69  38 VRB3      30.03F HX 104
EL DORADO      MOSUNNY   98  68  37 CALM      30.02F HX 103
DE QUEEN       SUNNY     97  69  40 W5        30.00F HX 103
$$

ARZ056-057-069-292100-
SOUTHEAST ARKANSAS

CITY           SKY/WX    TMP DP  RH WIND       PRES   REMARKS
PINE BLUFF     SUNNY     98  69  38 VRB3      30.01F HX 104
STUTTGART      SUNNY     99  73  44 W5        30.00F HX 109
MONTICELLO     SUNNY     98  70  40 CALM      30.00F HX 105

$$




USA.gov is the U.S. government's official web portal to all federal, state and local government web resources and services.